CZ-6A DEB, 61416

Orbit data source: Space-Track

CZ-6A DEB, 61416 is space debris in LEO originally from a launch on Tue, 06 Aug 2024 UTC launched from the Taiyaun Space Center, China (TSC). Debris objects in space refer to the collection of defunct objects orbiting the Earth. Examples of debris include non-operational satellites, rocket bodies, and fragments generated from explosions, collisions, or faulty payload assembly.

Loading next visibility...
Identifier
61416, 2024-140YH
Orbit
LEO
Country
Flag of CNCN / PRC
Related business
Manufacturer
SAST
Mission
Spacecraft
Bus & Motor
Unknown
Mass
Unknown
Launch date (UTC)
2024-08-06 (1 year ago)
Launch vehicle
Unknown
Launch site
Taiyaun Space Center, China (TSC)
Object type
Payload
Rocket body
Debris
Shape & HBR
Unknown shape, 0.1 m
Radar Cross Section
Small (<0.1 m²)

Expand to show TLE details & history
Last TLE update: 3 days ago

TLE from 3 days ago
0 CZ-6A DEB
1 61416U 24140YH  25352.34276295  .00001827  00000-0  43974-3 0  9992
2 61416  88.8848 285.2464 0076377 160.1670 200.2536 14.51109197 70290
Epoch: 2025-12-18T08:13Z
TLE epoch observation values (Epoch: 2025-12-18T08:13:34.718Z)
Latitude
-0.00005°
Longitude
74.6521°
Altitude
776.062 km
Speed
7.439 km/s
True Right ascension
19h 00m 59s
True Declination
0° 00' 00"
Sunlit
Object was in daylight at epoch
Visualization orbit readout
Latitude
Unknown
Longitude
Unknown
Altitude
Unknown
Speed
Unknown
Apparent Right ascension
Unknown
Apparent Declination
Unknown
Sunlit
N/A
Visualization observer readout
Local Sidereal Time
00:59:24
Azimuth
Unknown
Elevation
Unknown
Doppler factor
Unknown
Orbital elements
Apogee altitude
773.141 km
Perigee altitude
664.73 km
Semi-major axis
7,097.072 km
Eccentricity
0.00764
Inclination
88.8848°
RAAN
285.2464°
Arg. of periapsis
160.167°
True anomaly
199.95331°
Mean anomaly
200.2536°
Eccentric anomaly
200.10319°
Mean motion
3.63015 °/min
Orbital period
99.17 mins
BSTAR
0.00043974
Loading maneuver chart data...
Computing Atmospheric mass density...
Loading historical data...
Loading historical data...
Loading historical data...
Loading historical data...
Loading historical data...
Loading historical data...
Loading historical data...

Documentation

Showing up to 5 results
|